Location: Hochstatterhof
(48.7256°N, 10.3487°E)
Time: 21:36:21
(UTC+00:00)

COSMOS 2428 - Pass Details

Date: 26 September 2023
Orbit: 842 x 858 km, 70.9° (Epoch: 09 December)

Event Time Altitude Azimuth Distance (km) Brightness Sun altitude
Rises 04:20:05 0° 330° (NNW) 3,415 5.6 -9.1°
Reaches altitude 10° 04:22:32 10° 330° (NNW) 2,477 4.9 -8.7°
Maximum altitude 04:28:13 78° 245° (WSW) 872 2.7 -7.7°
Drops below altitude 10° 04:33:53 10° 160° (SSE) 2,472 5.3 -6.8°
Sets 04:36:20 0° 159° (SSE) 3,406 6.1 -6.4°
